• In Hungary
  • List of Countries
  • For 7 days
  • Water Temperature
  • Satellite Maps
  • Weather Map
  • News
  • Weather Widgets
  • user-avatar
    Login

    Hourly Weather Samarta

    Today, 20 February, Tuesday

    Time Temperature Precipitation Wind Pressure Humidity
    00:00 -23°C° 0 mm 2 mps 689 mmHg 97%
    01:00 -23°C° 0 mm 2 mps 689 mmHg 97%
    02:00 -23°C° 0 mm 2 mps 689 mmHg 97%
    03:00 -23°C° 0 mm 2 mps 689 mmHg 97%
    04:00 -23°C° 0 mm 2 mps 689 mmHg 97%
    05:00 -24°C° 0 mm 2 mps 689 mmHg 97%
    06:00 -24°C° 0 mm 2 mps 689 mmHg 97%
    07:00 -24°C° 0 mm 2 mps 689 mmHg 97%
    08:00 -22°C° 0 mm 3 mps 689 mmHg 93%
    09:00 -20°C° 0 mm 4 mps 689 mmHg 89%
    10:00 -18°C° 0 mm 4 mps 689 mmHg 84%
    11:00 -18°C° 0 mm 5 mps 689 mmHg 82%
    12:00 -17°C° 0 mm 5 mps 689 mmHg 79%
    13:00 -16°C° 0 mm 6 mps 688 mmHg 76%
    14:00 -16°C° 0.1 mm 6 mps 688 mmHg 78%
    15:00 -16°C° 0.1 mm 6 mps 687 mmHg 80%
    16:00 -16°C° 0.1 mm 6 mps 687 mmHg 81%
    17:00 -16°C° 0.1 mm 6 mps 687 mmHg 83%
    18:00 -15°C° 0.1 mm 5 mps 687 mmHg 85%
    19:00 -17°C° 0.1 mm 5 mps 687 mmHg 87%
    20:00 -17°C° 0.1 mm 5 mps 687 mmHg 87%
    21:00 -17°C° 0.1 mm 5 mps 686 mmHg 87%
    22:00 -18°C° 0.1 mm 5 mps 686 mmHg 87%
    23:00 -18°C° 0 mm 5 mps 686 mmHg 88%

    Tomorrow, 21 February, Wednesday

    Time Temperature Precipitation Wind Pressure Humidity
    00:00 -19°C° 0 mm 5 mps 686 mmHg 89%
    01:00 -18°C° 0 mm 4 mps 686 mmHg 90%
    02:00 -19°C° 0 mm 4 mps 685 mmHg 91%
    03:00 -19°C° 0 mm 3 mps 685 mmHg 93%
    04:00 -21°C° 0 mm 3 mps 685 mmHg 94%
    05:00 -22°C° 0 mm 3 mps 685 mmHg 95%
    06:00 -20°C° 0 mm 2 mps 685 mmHg 96%
    07:00 -21°C° 0 mm 2 mps 684 mmHg 97%
    08:00 -21°C° 0 mm 3 mps 685 mmHg 90%
    09:00 -18°C° 0 mm 3 mps 685 mmHg 84%
    10:00 -17°C° 0 mm 4 mps 685 mmHg 77%
    11:00 -16°C° 0 mm 4 mps 685 mmHg 75%
    12:00 -16°C° 0 mm 4 mps 684 mmHg 73%
    13:00 -15°C° 0 mm 5 mps 684 mmHg 70%
    14:00 -15°C° 0.1 mm 4 mps 684 mmHg 74%
    15:00 -15°C° 0.1 mm 4 mps 683 mmHg 77%
    16:00 -15°C° 0.1 mm 4 mps 683 mmHg 80%
    17:00 -17°C° 0.1 mm 4 mps 683 mmHg 83%
    18:00 -17°C° 0.1 mm 3 mps 683 mmHg 86%
    19:00 -17°C° 0.1 mm 2 mps 683 mmHg 90%
    20:00 -19°C° 0 mm 2 mps 683 mmHg 92%
    21:00 -20°C° 0 mm 2 mps 683 mmHg 94%
    22:00 -19°C° 0 mm 1 mps 683 mmHg 96%
    23:00 -19°C° 0 mm 1 mps 682 mmHg 96%

    Day after tomorrow, 22 February, Thursday

    Time Temperature Precipitation Wind Pressure Humidity
    00:00 -20°C° 0 mm 1 mps 682 mmHg 97%
    01:00 -20°C° 0 mm 1 mps 682 mmHg 97%
    02:00 -20°C° 0 mm 1 mps 682 mmHg 97%
    03:00 -20°C° 0 mm 1 mps 681 mmHg 97%
    04:00 -19°C° 0 mm 1 mps 681 mmHg 97%
    05:00 -19°C° 0.1 mm 1 mps 681 mmHg 97%
    06:00 -19°C° 0.1 mm 1 mps 681 mmHg 97%
    07:00 -19°C° 0.1 mm 1 mps 681 mmHg 97%
    08:00 -17°C° 0 mm 1 mps 681 mmHg 93%
    09:00 -15°C° 0 mm 1 mps 681 mmHg 89%
    10:00 -14°C° 0 mm 1 mps 682 mmHg 84%
    11:00 -15°C° 0 mm 2 mps 682 mmHg 80%
    12:00 -14°C° 0 mm 2 mps 682 mmHg 75%
    13:00 -13°C° 0 mm 2 mps 682 mmHg 70%
    14:00 -14°C° 0 mm 2 mps 682 mmHg 72%
    15:00 -14°C° 0 mm 2 mps 682 mmHg 75%
    16:00 -12°C° 0 mm 1 mps 682 mmHg 77%
    17:00 -14°C° 0 mm 1 mps 683 mmHg 81%
    18:00 -17°C° 0 mm 1 mps 683 mmHg 85%
    19:00 -19°C° 0 mm 0 mps 683 mmHg 89%
    20:00 -20°C° 0 mm 0 mps 684 mmHg 90%
    21:00 -20°C° 0 mm 0 mps 684 mmHg 91%
    22:00 -21°C° 0 mm 0 mps 684 mmHg 93%
    23:00 -22°C° 0 mm 0 mps 685 mmHg 93%

    23 February, Friday

    Time Temperature Precipitation Wind Pressure Humidity
    00:00 -22°C° 0 mm 0 mps 685 mmHg 94%
    01:00 -23°C° 0 mm 0 mps 685 mmHg 94%
    02:00 -24°C° 0 mm 0 mps 685 mmHg 95%
    03:00 -24°C° 0 mm 0 mps 685 mmHg 96%
    04:00 -24°C° 0 mm 0 mps 686 mmHg 96%
    05:00 -25°C° 0 mm 0 mps 686 mmHg 97%
    06:00 -25°C° 0 mm 0 mps 686 mmHg 97%
    07:00 -25°C° 0 mm 0 mps 687 mmHg 97%
    08:00 -22°C° 0 mm 0 mps 687 mmHg 92%
    09:00 -19°C° 0 mm 1 mps 687 mmHg 86%
    10:00 -16°C° 0 mm 1 mps 688 mmHg 81%
    11:00 -15°C° 0 mm 1 mps 688 mmHg 77%
    12:00 -13°C° 0 mm 1 mps 687 mmHg 73%
    13:00 -12°C° 0 mm 1 mps 687 mmHg 69%
    14:00 -12°C° 0 mm 1 mps 687 mmHg 72%
    15:00 -12°C° 0 mm 1 mps 687 mmHg 76%
    16:00 -12°C° 0 mm 1 mps 687 mmHg 80%
    17:00 -15°C° 0 mm 1 mps 687 mmHg 83%
    18:00 -17°C° 0 mm 0 mps 687 mmHg 87%
    19:00 -19°C° 0 mm 0 mps 687 mmHg 90%
    20:00 -19°C° 0 mm 0 mps 687 mmHg 92%
    21:00 -19°C° 0 mm 0 mps 687 mmHg 93%
    22:00 -20°C° 0 mm 0 mps 687 mmHg 94%
    23:00 -20°C° 0 mm 0 mps 687 mmHg 95%

    24 February, Saturday

    Time Temperature Precipitation Wind Pressure Humidity
    00:00 -20°C° 0 mm 0 mps 687 mmHg 96%
    01:00 -20°C° 0 mm 0 mps 687 mmHg 97%
    02:00 -20°C° 0 mm 0 mps 687 mmHg 97%
    03:00 -20°C° 0 mm 0 mps 686 mmHg 98%
    04:00 -20°C° 0 mm 0 mps 686 mmHg 98%
    05:00 -20°C° 0 mm 0 mps 686 mmHg 98%
    06:00 -20°C° 0 mm 0 mps 686 mmHg 98%
    07:00 -20°C° 0 mm 0 mps 686 mmHg 98%
    08:00 -17°C° 0 mm 0 mps 687 mmHg 93%
    09:00 -15°C° 0 mm 0 mps 687 mmHg 89%
    10:00 -12°C° 0 mm 1 mps 687 mmHg 84%
    11:00 -11°C° 0 mm 1 mps 687 mmHg 81%
    12:00 -10°C° 0 mm 1 mps 686 mmHg 79%
    13:00 -9°C° 0 mm 1 mps 686 mmHg 76%
    14:00 -9°C° 0 mm 1 mps 686 mmHg 78%
    15:00 -9°C° 0 mm 1 mps 686 mmHg 81%
    16:00 -9°C° 0 mm 1 mps 686 mmHg 84%
    17:00 -11°C° 0 mm 0 mps 686 mmHg 87%
    18:00 -13°C° 0 mm 0 mps 686 mmHg 89%
    19:00 -15°C° 0 mm 0 mps 686 mmHg 92%
    20:00 -15°C° 0 mm 0 mps 686 mmHg 93%
    21:00 -16°C° 0 mm 0 mps 686 mmHg 94%
    22:00 -16°C° 0 mm 0 mps 686 mmHg 95%
    23:00 -17°C° 0 mm 0 mps 686 mmHg 96%

    25 February, Sunday

    Time Temperature Precipitation Wind Pressure Humidity
    00:00 -17°C° 0 mm 0 mps 685 mmHg 97%
    01:00 -17°C° 0 mm 0 mps 685 mmHg 97%
    02:00 -18°C° 0 mm 0 mps 685 mmHg 98%
    03:00 -18°C° 0 mm 0 mps 685 mmHg 98%
    04:00 -18°C° 0 mm 0 mps 685 mmHg 98%
    05:00 -18°C° 0 mm 1 mps 685 mmHg 98%
    06:00 -18°C° 0 mm 1 mps 685 mmHg 97%
    07:00 -19°C° 0 mm 1 mps 685 mmHg 97%
    08:00 -16°C° 0 mm 1 mps 685 mmHg 92%
    09:00 -13°C° 0 mm 1 mps 685 mmHg 86%
    10:00 -10°C° 0 mm 0 mps 685 mmHg 81%
    11:00 -9°C° 0 mm 1 mps 684 mmHg 78%
    12:00 -7°C° 0 mm 1 mps 683 mmHg 75%
    13:00 -6°C° 0 mm 1 mps 683 mmHg 72%
    14:00 -6°C° 0 mm 1 mps 683 mmHg 75%
    15:00 -7°C° 0 mm 1 mps 682 mmHg 78%
    16:00 -7°C° 0 mm 1 mps 682 mmHg 82%
    17:00 -9°C° 0 mm 1 mps 682 mmHg 85%
    18:00 -10°C° 0 mm 1 mps 682 mmHg 88%
    19:00 -12°C° 0 mm 1 mps 681 mmHg 91%
    20:00 -12°C° 0.1 mm 1 mps 681 mmHg 92%
    21:00 -12°C° 0.1 mm 1 mps 681 mmHg 93%
    22:00 -12°C° 0.1 mm 1 mps 681 mmHg 95%
    23:00 -12°C° 0.3 mm 1 mps 681 mmHg 95%
    Show more